CAPE
89 72 41 6 0 4 20 27 42 68 127 242 293 299 478 442 329 164 144 286 357 622 945 1164 1163 1428 1392 1140 772 536 378 321 689 425 236 116 0 0 16 93 199 62 89
84 99 111 48 11 0 11 108 128 141 219 341 505 532 447 374 309 224 94 190 358 620 988 1281 1098 1305 1283 950 723 377 390 303 517 339 76 127 15 0 0 24 17 55 10
98 80 129 88 27 26 32 89 197 216 266 339 398 396 436 443 249 31 47 241 552 829 1153 1310 1240 1314 1113 774 495 241 179 329 474 319 311 164 12 0 0 0 2 4 0
9 17 13 48 71 90 87 145 222 301 336 430 429 450 567 557 312 16 138 397 582 832 1047 1314 1403 1244 899 978 838 430 170 120 341 483 547 287 54 22 0 0 0 0 0
34 67 19 30 8 75 142 172 261 391 475 545 559 567 627 509 281 123 251 569 625 904 1219 1352 1498 1377 1210 1241 855 672 155 9 12 314 536 422 115 1 21 37 0 0 2
236 130 69 12 12 55 188 238 283 469 590 640 700 699 657 532 313 178 219 583 668 737 870 1275 1529 1549 1381 1285 1234 819 743 458 435 627 747 514 384 192 103 166 150 52 154
232 292 217 93 41 86 214 279 322 481 650 718 738 684 632 516 360 209 260 611 679 633 691 901 1143 1324 1205 1380 1284 1243 896 374 240 109 209 499 482 446 307 148 117 30 96
64 364 322 245 185 131 213 321 323 450 590 708 705 623 548 509 412 338 439 663 777 969 850 813 935 1041 1148 1218 1293 1074 871 588 211 154 285 620 747 463 144 113 151 71 51
152 420 506 301 287 203 286 318 384 433 477 564 559 577 586 521 465 508 450 611 739 891 931 987 854 777 1080 1185 985 886 744 610 454 387 901 840 764 356 133 57 22 65 94
248 419 480 346 185 170 260 474 437 423 326 417 405 391 544 640 663 794 880 1356 1465 1355 1226 846 725 970 1080 941 826 596 222 122 2 9 68 948 673 492 286 62 25 43 76
302 477 675 576 418 339 459 556 630 567 479 506 518 546 544 588 584 693 879 1275 1221 867 497 102 610 451 634 725 610 516 301 157 206 125 133 862 436 346 180 106 61 3 16
909 898 877 746 657 637 586 692 790 806 669 654 680 546 843 1012 952 812 669 511 543 178 30 10 7 89 189 144 90 43 267 449 334 310 599 615 537 334 50 5 0 0 1
1207 1164 1064 1097 1198 1017 766 661 808 966 1082 862 873 1101 1402 1396 1320 1054 493 38 104 18 4 0 0 0 0 24 57 65 136 224 243 275 458 526 465 491 443 110 128 119 279
1520 876 2 0 112 971 1058 835 785 839 1016 1178 1218 1208 1391 1556 1120 452 120 107 49 13 0 0 0 0 0 1 2 0 7 52 59 40 31 80 145 159 309 300 271 163 151
484 778 371 684 737 829 638 701 832 1030 965 890 1023 1052 961 819 395 67 1 9 34 4 12 5 0 0 0 0 0 0 1 23 8 0 1 4 1 7 37 80 20 0 0
200 83 91 239 297 410 289 407 580 461 350 612 794 698 566 112 0 0 0 3 0 10 21 0 0 0 0 0 0 0 0 6 5 1 0 0 0 0 0 0 0 0 0
122 419 257 205 766 1329 860 660 545 267 201 376 499 298 166 65 0 0 0 0 0 5 14 27 0 0 0 0 0 0 0 0 0 0 0 0 0 0 0 0 0 0 0
122 241 262 335 359 1006 1133 772 291 46 2 34 52 33 43 83 15 0 0 0 12 94 62 0 0 0 0 0 0 0 0 0 0 0 0 0 0 0 0 0 0 0 0
100 98 206 291 481 1046 1266 994 694 204 0 0 0 0 0 0 0 6 9 15 35 18 6 0 0 0 0 0 0 0 0 0 0 0 0 0 0 0 0 0 0 0 0
0 0 115 744 946 1117 1273 1039 804 407 259 4 0 0 0 0 0 0 0 9 0 0 0 0 0 0 0 0 0 0 0 0 0 0 0 0 0 0 0 0 0 0 0
0 0 0 14 369 543 1023 919 840 527 156 36 0 0 0 1 1 0 1 10 0 0 0 0 0 0 0 0 0 0 0 0 0 0 0 0 0 0 0 0 0 0 0
0 0 0 0 0 0 0 0 0 26 97 0 1 8 6 1 0 0 0 0 0 0 0 0 0 0 0 0 0 0 0 0 0 0 0 0 0 0 0 0 0 0 0
0 0 0 0 0 0 0 0 0 0 42 30 41 38 0 0 0 0 0 0 0 0 0 0 0 0 0 0 0 0 0 0 0 0 0 0 0 0 0 0 0 0 0
0 0 1 0 0 0 0 0 26 0 1 18 1 0 0 0 0 0 0 0 0 0 0 0 0 0 0 0 0 0 0 0 0 0 0 0 0 0 0 0 0 0 0
0 0 2 0 0 0 0 9 24 7 0 0 0 0 0 0 0 0 0 0 0 0 0 0 0 0 0 0 0 0 0 0 0 0 0 0 0 0 0 0 0 0 0
0 2 2 2 0 0 2 0 99 19 3 4 0 0 0 0 0 0 0 0 0 0 0 0 0 0 0 0 0 0 0 0 0 0 0 0 0 0 0 0 0 0 0
CIN
-502 -589 -635 -637 -0 -336 -706 -633 -596 -530 -454 -358 -305 -254 -170 -148 -147 -198 -182 -108 -77 -60 -61 -40 -44 -63 -64 -51 -78 -81 -96 -116 -110 -122 -184 -250 -0 -0 -342 -244 -225 -295 -263
-494 -515 -564 -599 -606 -0 -504 -558 -523 -482 -404 -322 -249 -230 -199 -158 -136 -156 -201 -129 -74 -50 -58 -48 -46 -71 -63 -69 -87 -103 -89 -96 -117 -77 -149 -102 -30 -0 -0 -289 -281 -281 -388
-381 -466 -462 -532 -608 -560 -597 -521 -467 -451 -379 -317 -320 -272 -203 -183 -191 -306 -288 -149 -68 -44 -47 -55 -50 -50 -68 -53 -89 -112 -102 -60 -95 -132 -76 -72 -100 -0 -0 -0 -147 -361 -0
-446 -442 -510 -474 -516 -474 -581 -508 -457 -438 -380 -370 -303 -241 -173 -143 -185 -358 -244 -139 -91 -54 -47 -54 -47 -39 -74 -65 -62 -105 -115 -126 -57 -100 -117 -144 -197 -98 -0 -0 -0 -0 -0
-436 -346 -451 -361 -448 -543 -490 -513 -478 -437 -389 -344 -310 -266 -207 -201 -241 -303 -238 -145 -103 -71 -51 -57 -59 -60 -77 -54 -61 -82 -127 -247 -57 -81 -70 -110 -157 -15 -169 -83 -0 -1 -15
-337 -347 -411 -484 -474 -549 -547 -547 -475 -440 -429 -363 -325 -269 -246 -241 -283 -310 -275 -151 -103 -86 -72 -73 -67 -60 -62 -61 -52 -70 -82 -98 -93 -87 -57 -50 -45 -91 -111 -77 -105 -139 -188
-268 -311 -353 -394 -468 -462 -507 -524 -509 -429 -456 -399 -358 -310 -280 -274 -290 -308 -269 -161 -118 -109 -53 -54 -61 -66 -61 -57 -63 -59 -79 -145 -146 -149 -130 -61 -56 -74 -104 -116 -101 -132 -205
-246 -325 -320 -291 -341 -417 -506 -533 -520 -443 -477 -429 -397 -367 -318 -301 -304 -285 -226 -147 -111 -69 -73 -76 -80 -74 -65 -72 -85 -83 -81 -106 -155 -154 -134 -65 -51 -89 -140 -106 -95 -121 -155
-235 -225 -274 -346 -312 -416 -447 -488 -498 -472 -478 -447 -446 -387 -354 -303 -295 -243 -227 -180 -158 -126 -124 -97 -99 -93 -69 -71 -83 -83 -77 -92 -102 -104 -65 -52 -41 -109 -192 -203 -176 -104 -54
-217 -242 -275 -361 -436 -468 -524 -536 -528 -451 -487 -436 -443 -409 -361 -356 -308 -232 -150 -101 -77 -89 -79 -100 -118 -101 -76 -82 -104 -98 -142 -120 -45 -101 -139 -64 -70 -95 -172 -213 -223 -166 -103
-236 -237 -292 -331 -334 -406 -459 -478 -524 -492 -471 -445 -453 -392 -401 -371 -342 -282 -179 -98 -110 -130 -168 -300 -247 -282 -188 -118 -84 -85 -113 -106 -110 -118 -123 -55 -109 -108 -165 -182 -208 -85 -203
-381 -315 -395 -383 -324 -420 -344 -402 -437 -472 -484 -457 -378 -349 -360 -340 -301 -263 -237 -253 -183 -277 -394 -388 -185 -240 -152 -175 -170 -133 -100 -72 -81 -83 -65 -51 -79 -119 -223 -268 -0 -194 -176
-213 -267 -293 -293 -265 -269 -336 -383 -443 -472 -488 -513 -437 -375 -342 -299 -261 -257 -287 -459 -250 -334 -367 -0 -0 -0 -0 -124 -166 -117 -121 -112 -114 -101 -66 -61 -74 -74 -83 -135 -90 -111 -65
-249 -224 -18 -0 -46 -233 -410 -508 -482 -559 -459 -455 -436 -407 -318 -262 -263 -404 -473 -374 -111 -149 -0 -0 -0 -0 -0 -0 -24 -6 -90 -105 -123 -192 -204 -181 -132 -105 -69 -78 -57 -47 -54
-272 -284 -341 -375 -294 -416 -499 -549 -510 -458 -481 -487 -442 -407 -392 -322 -406 -534 -146 -139 -388 -142 -313 -224 -0 -0 -0 -0 -0 -0 -16 -82 -153 -2 -45 -201 -186 -159 -166 -105 -159 -49 -0
-419 -500 -488 -430 -403 -406 -523 -548 -510 -553 -632 -510 -436 -400 -357 -561 -0 -0 -0 -192 -0 -368 -391 -8 -0 -0 -0 -0 -0 -0 -0 -169 -163 -151 -0 -0 -0 -0 -0 -0 -0 -0 -0
-414 -436 -534 -542 -399 -295 -366 -428 -509 -610 -600 -470 -368 -400 -397 -478 -0 -0 -0 -0 -0 -404 -417 -410 -0 -0 -0 -0 -0 -0 -0 -0 -0 -0 -0 -28 -0 -0 -0 -0 -0 -0 -0
-320 -307 -362 -375 -385 -328 -307 -383 -535 -610 -208 -522 -537 -486 -436 -415 -357 -0 -0 -0 -311 -232 -301 -0 -0 -0 -0 -0 -0 -0 -0 -0 -0 -0 -0 -0 -0 -0 -0 -0 -0 -0 -0
-397 -426 -451 -444 -412 -304 -268 -305 -364 -472 -0 -0 -0 -0 -0 -0 -0 -347 -340 -309 -254 -351 -376 -0 -0 -0 -0 -0 -0 -0 -0 -0 -0 -0 -0 -0 -0 -0 -0 -0 -0 -0 -0
-0 -0 -443 -305 -248 -197 -155 -166 -204 -281 -319 -31 -0 -0 -0 -0 -0 -0 -20 -359 -39 -0 -0 -0 -0 -0 -0 -0 -0 -0 -0 -0 -0 -0 -0 -0 -0 -0 -0 -0 -0 -0 -0
-0 -0 -0 -271 -202 -137 -52 -74 -52 -117 -257 -340 -0 -0 -0 -0 -3 -36 -80 -463 -0 -0 -0 -0 -0 -0 -0 -0 -0 -0 -0 -0 -0 -0 -0 -0 -0 -0 -0 -0 -0 -0 -0
-0 -0 -0 -0 -0 -0 -0 -0 -0 -106 -195 -0 -0 -15 -76 -39 -0 -0 -0 -0 -0 -0 -0 -0 -0 -0 -0 -0 -0 -0 -0 -0 -0 -0 -0 -0 -0 -0 -0 -0 -0 -0 -0
-0 -0 -0 -0 -0 -0 -0 -0 -0 -0 -111 -28 -145 -38 -0 -0 -0 -0 -0 -0 -0 -0 -0 -0 -0 -0 -0 -0 -0 -0 -0 -0 -0 -0 -0 -0 -0 -0 -0 -0 -0 -0 -0
-0 -0 -0 -0 -0 -0 -0 -0 -176 -0 -0 -91 -0 -0 -0 -0 -0 -0 -0 -0 -0 -0 -0 -0 -0 -0 -0 -0 -0 -0 -0 -0 -0 -0 -0 -0 -0 -0 -0 -0 -0 -0 -0
-0 -0 -0 -0 -0 -0 -0 -12 -34 -65 -0 -0 -0 -0 -0 -0 -0 -0 -0 -0 -0 -0 -0 -0 -0 -0 -0 -0 -0 -0 -0 -0 -0 -0 -0 -0 -0 -0 -0 -0 -0 -0 -0
-0 -1 -0 -0 -0 -0 -0 -0 -4 -64 -25 -33 -0 -0 -0 -0 -0 -0 -0 -0 -0 -0 -0 -0 -0 -0 -0 -0 -0 -0 -0 -0 -0 -0 -0 -0 -0 -0 -0 -0 -0 -0 -0
Wind_Speed
16 17 18 18 16 17 16 17 18 18 15 13 10 10 9 6 4 6 3 9 6 8 5 4 16 11 12 14 12 15 12 12 10 15 19 15 7 3 7 4 8 19 20
15 14 17 17 17 16 16 15 16 15 16 15 12 6 7 3 3 5 13 10 11 2 1 8 5 5 13 11 10 18 16 14 7 12 16 21 21 6 7 3 1 3 20
17 15 17 17 14 15 17 16 16 15 15 15 11 1 3 11 10 6 6 5 6 5 3 4 2 5 9 8 14 11 11 8 8 5 12 14 15 21 14 3 2 8 10
16 15 17 17 18 17 12 15 14 14 15 14 12 12 8 5 3 2 2 4 10 9 6 1 1 4 8 6 10 9 9 11 9 12 5 14 15 19 22 19 17 9 3
18 19 19 20 15 12 12 12 13 13 13 14 14 12 10 8 1 1 1 5 13 15 11 2 2 1 7 8 11 11 8 8 10 9 13 14 16 16 15 21 21 15 13
16 19 19 16 13 10 10 11 12 13 13 13 13 13 11 10 6 2 3 3 12 21 19 15 10 9 11 10 11 11 9 7 9 10 12 12 15 15 15 14 14 10 9
11 15 13 14 13 12 11 11 12 12 13 13 12 13 12 11 10 7 4 4 8 12 15 16 15 14 12 11 12 11 12 10 9 9 13 14 12 15 15 15 13 12 7
4 7 10 14 13 11 9 9 13 10 10 13 12 11 11 10 10 9 6 6 4 9 15 17 18 15 13 15 13 13 13 10 11 16 19 16 14 11 12 14 15 16 14
7 4 7 9 12 10 9 9 11 12 11 13 11 9 8 9 10 9 7 5 3 3 11 18 20 19 17 17 18 17 15 15 15 19 20 18 22 15 13 14 15 15 14
10 7 8 8 3 4 6 7 8 15 10 10 11 9 8 8 7 5 5 4 6 11 14 3 13 23 12 19 19 19 18 15 16 15 18 17 14 12 11 11 12 14 18
14 16 13 8 3 2 4 6 7 10 11 13 10 9 7 8 8 6 6 10 12 22 25 26 15 26 21 18 18 20 19 19 21 22 20 17 14 12 11 10 11 6 14
18 15 14 11 9 7 10 6 6 7 8 12 14 15 12 10 9 8 7 7 4 13 21 24 22 18 14 14 17 26 23 22 22 25 24 22 18 14 11 12 9 6 6
15 15 14 18 18 21 17 12 12 9 7 9 12 14 15 14 13 11 10 17 16 13 17 15 23 25 13 8 14 20 22 20 22 22 22 21 18 17 13 11 12 15 10
18 15 26 22 26 26 25 24 22 18 15 11 14 15 18 17 15 13 12 13 21 3 9 16 17 19 22 15 8 12 11 19 20 20 18 20 19 16 14 11 16 22 14
27 31 30 32 26 28 25 25 25 20 19 20 20 21 20 17 15 16 20 16 6 7 12 14 16 17 17 16 13 9 11 16 19 22 21 19 20 19 15 13 13 13 15
31 33 33 31 30 32 27 25 25 23 21 18 17 16 14 11 16 21 17 13 6 8 11 14 16 17 17 15 13 9 9 12 16 18 16 18 21 20 19 18 14 15 15
32 30 30 31 28 27 22 22 22 23 21 18 13 6 6 14 34 29 7 3 3 7 10 14 15 16 16 14 14 13 11 9 7 12 17 17 15 14 15 16 16 16 17
32 33 33 33 31 26 24 23 23 21 18 16 12 13 13 13 2 9 5 2 4 6 10 12 15 16 16 15 15 13 12 12 13 12 12 11 14 17 16 16 17 19 20
34 36 37 36 34 30 26 24 23 20 18 15 13 12 12 10 2 4 1 2 3 6 9 11 14 14 15 16 15 14 14 13 13 13 14 15 16 17 17 17 18 20 21
38 43 42 39 37 35 30 28 28 26 21 17 14 10 7 6 8 5 1 0 4 7 8 10 11 12 15 15 14 13 12 13 13 15 15 16 19 21 21 20 21 23 24
43 44 45 43 42 35 30 31 28 26 20 18 17 9 6 11 10 4 1 2 5 6 8 9 11 12 14 14 14 14 14 13 13 15 18 21 23 24 23 21 21 21 23
45 45 46 45 40 35 34 34 31 24 20 13 11 11 5 4 4 2 4 3 5 6 7 9 10 11 12 12 13 14 15 15 16 18 20 23 26 24 21 20 21 20 19
41 40 41 45 46 37 35 38 34 22 15 10 8 3 7 3 6 2 1 3 4 5 7 8 9 9 10 11 13 15 17 19 19 21 23 23 22 22 19 17 18 19 20
38 38 41 48 55 47 34 30 19 10 5 11 8 7 6 6 5 1 3 3 5 6 8 8 8 8 10 11 13 16 17 19 20 21 21 19 20 21 21 21 23 23 24
36 40 44 43 46 53 26 20 14 11 9 8 9 8 7 7 4 2 2 4 6 7 8 8 9 10 10 11 12 14 16 19 21 20 22 22 22 24 26 27 27 28 29
34 33 36 37 43 51 16 13 15 13 11 11 9 9 6 6 4 3 4 7 8 8 9 9 10 12 12 11 13 15 17 18 21 22 24 24 24 25 28 30 31 32 31
Wind_Direction
174 173 176 177 170 171 171 173 173 175 169 173 178 180 182 184 279 291 288 314 333 178 176 163 197 342 344 337 350 336 352 350 343 329 326 346 7 141 354 26 145 287 286
181 176 177 179 180 179 177 175 177 173 175 175 174 171 180 215 252 279 300 301 315 182 76 164 160 0 338 341 349 340 341 336 19 340 334 323 325 355 185 134 145 165 285
191 184 182 181 178 182 182 179 177 175 174 173 166 175 328 315 319 312 308 294 311 323 352 165 151 357 346 345 336 345 354 11 352 353 345 343 343 332 358 45 156 321 301
198 192 188 185 183 184 175 179 177 175 174 169 173 178 182 187 203 307 258 298 308 316 325 233 177 353 349 349 337 344 341 342 336 332 344 322 335 328 318 326 322 320 274
204 200 195 192 189 182 177 175 176 176 174 176 177 180 183 184 162 359 215 314 310 310 317 288 238 307 337 334 330 335 344 337 339 334 332 325 326 328 336 321 318 327 298
207 204 201 194 189 183 180 179 178 178 177 179 183 184 186 184 181 191 202 281 309 302 307 310 310 311 320 324 324 328 330 326 328 324 322 324 322 324 328 334 330 342 327
213 206 202 194 188 187 185 181 181 181 179 182 186 188 190 187 188 185 202 265 304 312 314 314 308 303 302 310 312 315 316 315 318 323 312 318 317 319 319 320 327 320 358
227 212 194 190 192 196 197 192 187 195 188 185 187 191 195 196 195 190 193 203 281 316 321 321 318 310 298 299 300 302 298 301 308 312 306 314 317 320 320 313 317 307 307
330 169 183 193 191 193 202 205 202 203 203 197 196 197 197 199 202 198 197 199 212 286 319 321 313 309 301 294 291 292 291 293 303 303 302 306 300 307 308 308 312 308 304
14 12 337 317 288 273 263 262 227 212 234 222 216 207 202 201 208 220 227 271 303 321 328 305 322 309 293 292 286 285 287 294 304 303 309 305 308 312 305 303 306 305 300
347 333 339 353 350 344 296 271 263 263 239 235 249 240 248 223 220 232 271 295 313 307 308 321 343 329 308 290 284 280 279 289 292 294 302 305 307 308 306 302 301 314 292
344 349 351 2 359 359 352 316 296 272 258 257 260 254 261 243 245 273 278 274 276 317 319 325 331 330 317 286 283 285 285 283 286 292 295 297 301 303 301 302 299 306 295
4 359 359 359 359 340 336 331 327 307 279 260 259 254 251 258 269 281 291 300 295 336 340 351 346 345 334 294 286 286 286 287 289 294 293 296 299 298 302 307 308 298 301
343 350 330 349 297 330 332 331 322 322 299 280 280 272 275 275 279 284 292 308 318 256 4 1 9 21 29 33 338 300 302 299 301 302 305 302 299 301 302 313 311 295 297
322 323 330 325 319 321 337 327 328 328 321 316 301 294 286 286 281 287 294 306 7 37 19 23 27 29 40 46 58 342 316 305 308 304 303 307 300 302 314 316 314 307 308
322 319 322 326 323 325 327 328 326 327 324 323 312 303 292 293 302 294 303 317 19 22 19 19 21 19 27 34 27 40 321 320 314 316 312 309 308 303 310 301 306 307 306
322 324 324 326 330 333 333 331 330 330 328 326 326 318 291 299 314 282 263 170 54 23 21 15 24 26 29 32 25 12 2 352 339 339 299 308 310 313 313 314 320 318 315
327 324 322 322 325 327 325 324 326 329 329 324 322 311 305 306 258 181 188 324 12 20 29 39 42 36 38 34 31 30 17 8 347 341 348 347 331 316 321 323 320 315 311
321 319 319 317 319 319 318 316 315 317 318 314 314 306 311 308 254 173 216 62 23 38 37 44 37 37 34 30 27 30 29 18 2 358 347 336 336 333 330 327 322 317 314
319 315 315 316 315 311 307 305 304 303 302 300 296 294 283 282 281 272 209 344 46 26 37 29 41 43 31 26 28 27 25 18 11 354 349 344 336 327 326 324 321 314 313
319 318 316 315 314 311 307 302 301 298 301 307 295 269 252 273 263 243 133 48 19 35 33 43 44 41 37 30 29 24 18 19 11 351 340 333 328 325 323 323 321 319 318
321 322 320 317 314 308 304 300 299 302 295 291 282 242 222 233 239 235 296 353 31 37 40 39 37 36 27 28 19 12 5 359 351 343 339 332 327 327 328 328 328 327 330
327 329 329 327 319 304 292 291 295 291 272 257 188 191 124 192 238 227 8 333 17 17 22 21 24 28 22 17 3 355 350 346 343 338 336 336 343 345 347 346 342 338 332
333 334 331 326 325 311 289 279 275 263 236 171 190 191 142 160 190 138 66 8 10 19 22 23 28 32 15 1 352 347 347 347 345 343 342 344 344 345 344 339 336 332 328
336 333 330 328 327 334 288 266 239 207 205 215 218 214 203 165 172 42 14 3 8 25 25 32 28 17 7 2 357 353 346 343 341 342 339 335 332 331 331 329 327 325 324
347 355 352 349 343 338 305 224 223 210 200 201 189 207 185 170 142 92 26 359 28 40 37 36 24 2 360 7 358 348 343 343 341 334 333 332 330 329 328 326 324 324 323